Location: *
(35.2348°S, 91.3916°E)
Time: 03:20:25
(UTC+00:00)

Cosmos 909 Rocket - Pass Details

Date: 23 October 2019
Orbit: 979 x 2100 km, 65.9° (Epoch: 14 November)

Event Time Altitude Azimuth Distance (km) Brightness Sun altitude
Rises 21:23:02 0° 212° (SSW) 3,839 7.1 -19.4°
Reaches altitude 10° 21:25:29 10° 215° (SW) 2,957 6.5 -18.9°
Maximum altitude 21:32:20 64° 294° (WNW) 1,376 4.5 -17.7°
Drops below altitude 10° 21:40:49 10° 13° (NNE) 3,628 6.8 -16.2°
Sets 21:44:08 0° 16° (NNE) 4,769 7.5 -15.6°
